Flag for U.S.A. Weather past 2 weeks in Decatur, Illinois, U.S.A.

Now
41 °F

Clear.


Feels Like: 35 °F
Forecast: 36 / 59 °F
Wind: 10 mph from South

Location: Decatur Airport


UV Index: 0 (Low)

Visibility: 10 mi


Pressure: 30.17 "Hg

Humidity: 65%

Dew point: 30 °F

Location of DecaturLocation

Historic Weather in Decatur

°F

Decatur temperature yesterday

Maximum temperature yesterday: 54 °F (at 4:54 PM)
Minimum temperature yesterday: 30 °F (at 2:54 AM)
Average temperature yesterday: 43 °F

Past Weeks' High & Low Weather Summary

 TemperatureHumidityPressure
High78 °F (Apr 12, 1:54 PM)100% (Apr 3, 5:54 AM)30.32 "Hg (Apr 3, 5:54 AM)
Low30 °F (Apr 15, 5:54 AM)16% (Apr 11, 3:54 PM)29.43 "Hg (Apr 14, 12:54 AM)
Average50 °F67%29.92 "Hg
* Reported Apr 2 12:54 AM — Apr 17 12:54 AM, Decatur, Weather by CustomWeather, © 2014

Note: Actual official high and low records may vary slightly from our data, if they occured in-between our weather recording intervals... More about our weather records

Advertising

Historic Weather Conditions — Data for Previous 24 hours

 ConditionsComfort  
Time TempWeatherWind HumidityBarometerVisibility
12:54 AM
Apr 17
41 °FClear.10 mph65%30.17 "Hg10 mi
11:54 PM
Apr 16
41 °FClear.8 mph65%30.17 "Hg10 mi
10:54 PM43 °FClear.6 mph58%30.17 "Hg10 mi
9:54 PM46 °FClear.12 mph51%30.14 "Hg10 mi
8:54 PM47 °FClear.15 mph52%30.12 "Hg10 mi
7:54 PM49 °FSunny.18 mph44%30.11 "Hg10 mi
6:54 PM51 °FSunny.20 mph39%30.12 "Hg10 mi
5:54 PM53 °FSunny.22 mph35%30.12 "Hg10 mi
4:54 PM54 °FSunny.18 mph34%30.14 "Hg10 mi
3:54 PM53 °FSunny.22 mph37%30.16 "Hg10 mi
2:54 PM53 °FSunny.22 mph37%30.19 "Hg10 mi
1:54 PM52 °FSunny.22 mph41%30.23 "Hg10 mi
12:54 PM51 °FSunny.21 mph44%30.25 "Hg10 mi
11:54 AM49 °FSunny.17 mph44%30.29 "Hg10 mi
10:54 AM46 °FSunny.21 mph46%30.30 "Hg10 mi
9:54 AM43 °FSunny.18 mph51%30.31 "Hg10 mi
8:54 AM40 °FSunny.16 mph58%30.32 "Hg10 mi
7:54 AM37 °FSunny.15 mph67%30.30 "Hg10 mi
6:54 AM33 °FClear.10 mph72%30.28 "Hg10 mi
5:54 AM31 °FClear.8 mph76%30.27 "Hg10 mi
4:54 AM32 °FClear.8 mph73%30.27 "Hg10 mi
3:54 AM32 °FClear.8 mph73%30.26 "Hg10 mi
2:54 AM30 °FClear.7 mph75%30.25 "Hg10 mi
1:54 AM32 °FClear.7 mph69%30.24 "Hg10 mi
Weather by CustomWeather, © 2014

See weather overview